Everett, WA

6:03 AM PST on December 09, 2019 (GMT -0800)
Snohomish County

Weather History for KPAE - October, 2019

Change the Weather History Date:

Sunday, October 6, 2019

  Actual Average Record
Temperature  
Mean Temperature 52 °F -  
Max Temperature 60 °F 62 °F 75 °F (2000)
Min Temperature 45 °F 43 °F 31 °F (1974)
Degree Days  
Heating Degree Days 13    
Growing Degree Days 2 (Base 50)    
Moisture  
Dew Point 44 °F    
Average Humidity 78    
Maximum Humidity 93    
Minimum Humidity 55    
Precipitation  
Precipitation 0.00 in - - ()
Sea Level Pressure  
Sea Level Pressure 30.31 in    
Wind  
Wind Speed 5 mph (NE)    
Max Wind Speed 8 mph    
Max Gust Speed -    
Visibility 10 miles    
Events      
Averages and records for this station are not official NWS values.
T = Trace of Precipitation, MM = Missing Value Source: NWS Daily Summary

Daily Weather History Graph

Daily Weather History Graph

Search for Another Location

Airport or City:

Astronomy

Oct. 06, 2019 Rise Set
Actual Time 7:15 AM PDT 6:38 PM PDT
Civil Twilight 6:44 AM PDT 7:09 PM PDT
Nautical Twilight 6:08 AM PDT 7:45 PM PDT
Astronomical Twilight 5:32 AM PDT 8:21 PM PDT
Moon 3:54 PM PDT (10/6) No Moon Set
Length of Visible Light 12h 25m
Length of Day
11h 23m
First Quarter, 61% of the Moon is Illuminated
Oct 6
First Quarter
Oct 13
Full
Oct 21
Last Quarter
Oct 27
New
Nov 4
First Quarter

Hourly Weather History & Observations

Time (PDT) Temp. Windchill Dew Point Humidity Pressure Visibility Wind Dir Wind Speed Gust Speed Precip Events Conditions
12:53 AM 48.0 °F - 45.0 °F 89% 30.43 in 10.0 mi ESE 6.9 mph - N/A   Clear
1:53 AM 46.9 °F - 45.0 °F 93% 30.43 in 10.0 mi ESE 6.9 mph - N/A   Clear
2:53 AM 46.9 °F - 44.1 °F 90% 30.43 in 10.0 mi ESE 8.1 mph - N/A   Clear
3:53 AM 46.0 °F 43.9 °F 43.0 °F 89% 30.41 in 10.0 mi ESE 4.6 mph - N/A   Clear
4:53 AM 46.9 °F - 43.0 °F 86% 30.40 in 10.0 mi ESE 8.1 mph - N/A   Clear
5:53 AM 46.0 °F 43.1 °F 42.1 °F 86% 30.38 in 10.0 mi ESE 5.8 mph - N/A   Clear
6:53 AM 46.0 °F 43.9 °F 41.0 °F 83% 30.38 in 10.0 mi East 4.6 mph - N/A   Clear
7:53 AM 45.0 °F 43.5 °F 42.1 °F 90% 30.38 in 10.0 mi NNE 3.5 mph - N/A   Clear
8:53 AM 48.0 °F - 43.0 °F 83% 30.37 in 10.0 mi NE 4.6 mph - N/A   Clear
9:53 AM 50.0 °F - 43.0 °F 77% 30.37 in 10.0 mi North 3.5 mph - N/A   Clear
10:53 AM 53.1 °F - 44.1 °F 71% 30.36 in 10.0 mi Calm Calm - N/A   Clear
11:53 AM 55.9 °F - 43.0 °F 62% 30.35 in 10.0 mi North 5.8 mph - N/A   Clear
12:53 PM 55.9 °F - 43.0 °F 62% 30.32 in 10.0 mi North 5.8 mph - N/A   Clear
1:53 PM 57.0 °F - 44.1 °F 62% 30.30 in 10.0 mi Variable 5.8 mph - N/A   Clear
2:53 PM 59.0 °F - 44.1 °F 58% 30.28 in 10.0 mi North 4.6 mph - N/A   Clear
3:53 PM 59.0 °F - 43.0 °F 55% 30.25 in 10.0 mi North 8.1 mph - N/A   Clear
4:53 PM 57.9 °F - 46.0 °F 65% 30.24 in 10.0 mi NNW 6.9 mph - N/A   Clear
5:53 PM 55.0 °F - 46.0 °F 72% 30.22 in 10.0 mi North 4.6 mph - N/A   Clear
6:53 PM 52.0 °F - 46.0 °F 80% 30.21 in 10.0 mi NNW 4.6 mph - N/A   Clear
7:53 PM 51.1 °F - 45.0 °F 80% 30.20 in 10.0 mi NNW 4.6 mph - N/A   Mostly Cloudy
8:53 PM 51.1 °F - 46.0 °F 83% 30.19 in 10.0 mi NNW 3.5 mph - N/A   Scattered Clouds
9:53 PM 50.0 °F - 46.0 °F 86% 30.18 in 10.0 mi Calm Calm - N/A   Mostly Cloudy
10:53 PM 50.0 °F - 46.0 °F 86% 30.16 in 10.0 mi Calm Calm - N/A   Mostly Cloudy
11:53 PM 52.0 °F - 46.0 °F 80% 30.15 in 10.0 mi Calm Calm - N/A   Mostly Cloudy